Time,TemperatureF,DewpointF,PressureIn,WindDirection,WindDirectionDegrees,WindSpeedMPH,WindSpeedGustMPH,Humidity,HourlyPrecipIn,Conditions,Clouds,dailyrainin,SoftwareType,DateUTC
2013-05-18 00:07:00,65.8,65.2,29.97,WNW,292,0.0,-999.0,98,-99.99,,,0.00,Acu-Link.com,2013-05-18 04:07:00,
2013-05-18 00:22:00,64.9,64.3,29.95,NW,315,0.0,-999.0,98,-99.99,,,0.43,Acu-Link.com,2013-05-18 04:22:00,
2013-05-18 00:37:00,64.8,64.2,29.94,SSW,202,2.7,-999.0,98,-99.99,,,0.46,Acu-Link.com,2013-05-18 04:37:00,
2013-05-18 00:52:00,64.9,64.3,29.94,SW,225,1.1,-999.0,98,-99.99,,,0.47,Acu-Link.com,2013-05-18 04:52:00,
2013-05-18 01:07:00,64.9,64.3,29.93,ESE,112,2.7,-999.0,98,-99.99,,,0.48,Acu-Link.com,2013-05-18 05:07:00,
2013-05-18 01:22:00,64.9,64.3,29.93,WNW,292,0.0,-999.0,98,-99.99,,,0.48,Acu-Link.com,2013-05-18 05:22:00,
2013-05-18 01:38:00,64.8,64.2,29.93,SSW,202,0.0,-999.0,98,-99.99,,,0.48,Acu-Link.com,2013-05-18 05:38:00,
2013-05-18 01:53:00,64.6,64.0,29.93,NE,45,0.0,-999.0,98,-99.99,,,0.48,Acu-Link.com,2013-05-18 05:53:00,
2013-05-18 02:08:00,64.2,63.6,29.94,SSW,202,0.0,-999.0,98,-99.99,,,0.48,Acu-Link.com,2013-05-18 06:08:00,
2013-05-18 02:23:00,64.2,63.6,29.94,SW,225,0.0,-999.0,98,-99.99,,,0.48,Acu-Link.com,2013-05-18 06:23:00,
2013-05-18 02:38:00,63.9,63.3,29.94,ENE,67,0.0,-999.0,98,-99.99,,,0.48,Acu-Link.com,2013-05-18 06:38:00,
2013-05-18 02:53:00,63.9,63.3,29.93,NE,45,0.0,-999.0,98,-99.99,,,0.48,Acu-Link.com,2013-05-18 06:53:00,
2013-05-18 03:08:00,64.0,63.4,29.93,NW,315,0.0,-999.0,98,-99.99,,,0.48,Acu-Link.com,2013-05-18 07:08:00,
2013-05-18 03:23:00,63.9,63.3,29.94,NW,315,0.0,-999.0,98,-99.99,,,0.48,Acu-Link.com,2013-05-18 07:23:00,
2013-05-18 03:38:00,64.0,63.4,29.94,West,270,0.0,-999.0,98,-99.99,,,0.48,Acu-Link.com,2013-05-18 07:38:00,
2013-05-18 03:54:00,64.0,63.4,29.94,WNW,292,0.0,-999.0,98,-99.99,,,0.48,Acu-Link.com,2013-05-18 07:54:00,
2013-05-18 04:09:00,64.0,63.4,29.94,NW,315,0.0,-999.0,98,-99.99,,,0.48,Acu-Link.com,2013-05-18 08:09:00,
2013-05-18 04:24:00,63.9,63.3,29.94,NW,315,0.0,-999.0,98,-99.99,,,0.48,Acu-Link.com,2013-05-18 08:24:00,
2013-05-18 04:39:00,63.7,63.1,29.94,NNE,22,0.0,-999.0,98,-99.99,,,0.48,Acu-Link.com,2013-05-18 08:39:00,
2013-05-18 04:55:00,63.5,62.9,29.94,NNE,22,0.0,-999.0,98,-99.99,,,0.49,Acu-Link.com,2013-05-18 08:55:00,
2013-05-18 05:10:00,63.3,62.7,29.94,North,0,0.0,-999.0,98,-99.99,,,0.49,Acu-Link.com,2013-05-18 09:10:00,
2013-05-18 05:25:00,63.1,62.5,29.95,NNE,22,0.0,-999.0,98,-99.99,,,0.49,Acu-Link.com,2013-05-18 09:25:00,
2013-05-18 05:40:00,63.1,62.5,29.94,NNE,22,0.0,-999.0,98,-99.99,,,0.49,Acu-Link.com,2013-05-18 09:40:00,
2013-05-18 05:55:00,63.1,62.5,29.95,NNE,22,0.0,-999.0,98,-99.99,,,0.49,Acu-Link.com,2013-05-18 09:55:00,
2013-05-18 06:10:00,63.3,62.7,29.96,SSE,157,0.0,-999.0,98,-99.99,,,0.49,Acu-Link.com,2013-05-18 10:10:00,
2013-05-18 06:25:00,63.0,62.4,29.96,NNE,22,0.0,-999.0,98,-99.99,,,0.49,Acu-Link.com,2013-05-18 10:25:00,
2013-05-18 06:40:00,63.3,62.7,29.96,West,270,0.0,-999.0,98,-99.99,,,0.49,Acu-Link.com,2013-05-18 10:40:00,
2013-05-18 06:55:00,63.3,62.7,29.97,WSW,247,0.0,-999.0,98,-99.99,,,0.49,Acu-Link.com,2013-05-18 10:55:00,
2013-05-18 07:11:00,63.7,63.1,29.97,North,0,0.0,-999.0,98,-99.99,,,0.49,Acu-Link.com,2013-05-18 11:11:00,
2013-05-18 07:26:00,63.7,63.1,29.97,ENE,67,2.7,-999.0,98,-99.99,,,0.49,Acu-Link.com,2013-05-18 11:26:00,
2013-05-18 07:41:00,62.8,62.2,29.99,ENE,67,2.7,-999.0,98,-99.99,,,0.49,Acu-Link.com,2013-05-18 11:41:00,
2013-05-18 07:56:00,63.0,62.4,30.01,East,90,1.1,-999.0,98,-99.99,,,0.49,Acu-Link.com,2013-05-18 11:56:00,
2013-05-18 08:11:00,64.6,64.0,30.01,East,90,0.0,-999.0,98,-99.99,,,0.49,Acu-Link.com,2013-05-18 12:11:00,
2013-05-18 08:26:00,64.6,64.0,30.01,ESE,112,0.0,-999.0,98,-99.99,,,0.49,Acu-Link.com,2013-05-18 12:26:00,
2013-05-18 08:41:00,64.8,64.2,30.01,SW,225,2.2,-999.0,98,-99.99,,,0.49,Acu-Link.com,2013-05-18 12:41:00,
2013-05-18 08:56:00,65.1,64.5,30.01,SW,225,0.0,-999.0,98,-99.99,,,0.49,Acu-Link.com,2013-05-18 12:56:00,
2013-05-18 09:11:00,65.8,65.2,30.01,East,90,1.1,-999.0,98,-99.99,,,0.49,Acu-Link.com,2013-05-18 13:11:00,
2013-05-18 09:27:00,65.7,65.1,30.00,ENE,67,0.0,-999.0,98,-99.99,,,0.49,Acu-Link.com,2013-05-18 13:27:00,
2013-05-18 09:42:00,66.2,65.6,30.01,ESE,112,0.0,-999.0,98,-99.99,,,0.49,Acu-Link.com,2013-05-18 13:42:00,
2013-05-18 09:57:00,66.9,66.3,30.00,ESE,112,2.7,-999.0,98,-99.99,,,0.49,Acu-Link.com,2013-05-18 13:57:00,
2013-05-18 10:12:00,66.4,65.8,30.01,ESE,112,0.0,-999.0,98,-99.99,,,0.49,Acu-Link.com,2013-05-18 14:12:00,
2013-05-18 10:27:00,67.3,66.7,30.01,SW,225,0.0,-999.0,98,-99.99,,,0.49,Acu-Link.com,2013-05-18 14:27:00,
2013-05-18 10:42:00,67.8,67.2,30.00,SSW,202,0.0,-999.0,98,-99.99,,,0.49,Acu-Link.com,2013-05-18 14:42:00,
2013-05-18 10:57:00,70.5,69.9,30.00,South,180,0.0,-999.0,98,-99.99,,,0.49,Acu-Link.com,2013-05-18 14:57:00,
2013-05-18 11:12:00,71.4,70.8,30.00,SSW,202,0.0,-999.0,98,-99.99,,,0.49,Acu-Link.com,2013-05-18 15:12:00,
2013-05-18 11:27:00,72.3,71.7,30.00,SW,225,2.7,-999.0,98,-99.99,,,0.49,Acu-Link.com,2013-05-18 15:27:00,
2013-05-18 11:43:00,71.4,70.8,30.00,SSW,202,2.2,-999.0,98,-99.99,,,0.49,Acu-Link.com,2013-05-18 15:43:00,
2013-05-18 11:58:00,70.0,69.4,29.99,South,180,0.0,-999.0,98,-99.99,,,0.49,Acu-Link.com,2013-05-18 15:58:00,
2013-05-18 12:13:00,70.7,70.1,29.98,NE,45,0.0,-999.0,98,-99.99,,,0.49,Acu-Link.com,2013-05-18 16:13:00,
2013-05-18 12:28:00,71.6,71.0,29.99,East,90,0.0,-999.0,98,-99.99,,,0.49,Acu-Link.com,2013-05-18 16:28:00,
2013-05-18 12:43:00,72.1,71.5,29.99,SW,225,0.0,-999.0,98,-99.99,,,0.49,Acu-Link.com,2013-05-18 16:43:00,
2013-05-18 12:58:00,73.6,73.0,29.99,East,90,4.7,-999.0,98,-99.99,,,0.49,Acu-Link.com,2013-05-18 16:58:00,
2013-05-18 13:13:00,73.6,73.0,29.99,ENE,67,3.2,-999.0,98,-99.99,,,0.49,Acu-Link.com,2013-05-18 17:13:00,
2013-05-18 13:28:00,73.6,73.0,29.98,ESE,112,2.7,-999.0,98,-99.99,,,0.49,Acu-Link.com,2013-05-18 17:28:00,
2013-05-18 13:43:00,73.4,72.8,29.98,South,180,2.2,-999.0,98,-99.99,,,0.49,Acu-Link.com,2013-05-18 17:43:00,
2013-05-18 13:59:00,72.5,71.9,29.97,East,90,3.7,-999.0,98,-99.99,,,0.49,Acu-Link.com,2013-05-18 17:59:00,
2013-05-18 14:14:00,69.8,69.2,29.99,SSE,157,4.2,-999.0,98,-99.99,,,0.49,Acu-Link.com,2013-05-18 18:14:00,
2013-05-18 14:29:00,68.4,67.8,29.99,WSW,247,3.7,-999.0,98,-99.99,,,0.49,Acu-Link.com,2013-05-18 18:29:00,
2013-05-18 14:44:00,67.6,67.0,29.98,ESE,112,1.7,-999.0,98,-99.99,,,0.49,Acu-Link.com,2013-05-18 18:44:00,
2013-05-18 14:59:00,67.1,66.5,29.97,South,180,2.7,-999.0,98,-99.99,,,0.49,Acu-Link.com,2013-05-18 18:59:00,
2013-05-18 15:14:00,68.5,67.9,29.97,SW,225,2.7,-999.0,98,-99.99,,,0.49,Acu-Link.com,2013-05-18 19:14:00,
2013-05-18 15:29:00,71.4,70.8,29.96,SW,225,1.1,-999.0,98,-99.99,,,0.49,Acu-Link.com,2013-05-18 19:29:00,
2013-05-18 15:44:00,72.1,71.5,29.95,SSW,202,0.0,-999.0,98,-99.99,,,0.49,Acu-Link.com,2013-05-18 19:44:00,
2013-05-18 15:59:00,72.7,72.1,29.94,East,90,0.0,-999.0,98,-99.99,,,0.49,Acu-Link.com,2013-05-18 19:59:00,
2013-05-18 16:15:00,71.6,71.0,29.94,WSW,247,0.0,-999.0,98,-99.99,,,0.49,Acu-Link.com,2013-05-18 20:15:00,
2013-05-18 16:30:00,71.1,70.5,29.93,ENE,67,1.7,-999.0,98,-99.99,,,0.49,Acu-Link.com,2013-05-18 20:30:00,
2013-05-18 16:45:00,70.7,70.1,29.94,South,180,4.2,-999.0,98,-99.99,,,0.49,Acu-Link.com,2013-05-18 20:45:00,
2013-05-18 17:00:00,70.2,69.6,29.94,NNE,22,2.7,-999.0,98,-99.99,,,0.49,Acu-Link.com,2013-05-18 21:00:00,
2013-05-18 17:15:00,68.7,68.1,29.94,SSE,157,1.7,-999.0,98,-99.99,,,0.49,Acu-Link.com,2013-05-18 21:15:00,
2013-05-18 17:30:00,68.0,67.4,29.95,South,180,2.2,-999.0,98,-99.99,,,0.49,Acu-Link.com,2013-05-18 21:30:00,
2013-05-18 17:45:00,67.6,67.0,29.95,South,180,2.7,-999.0,98,-99.99,,,0.49,Acu-Link.com,2013-05-18 21:45:00,
2013-05-18 18:00:00,67.6,67.0,29.94,ESE,112,3.2,-999.0,98,-99.99,,,0.49,Acu-Link.com,2013-05-18 22:00:00,
2013-05-18 18:15:00,67.3,66.7,29.94,ESE,112,4.2,-999.0,98,-99.99,,,0.49,Acu-Link.com,2013-05-18 22:15:00,
2013-05-18 18:31:00,66.6,66.0,29.95,NE,45,3.2,-999.0,98,-99.99,,,0.49,Acu-Link.com,2013-05-18 22:31:00,
2013-05-18 18:46:00,66.4,65.8,29.95,NE,45,2.7,-999.0,98,-99.99,,,0.49,Acu-Link.com,2013-05-18 22:46:00,
2013-05-18 19:01:00,66.7,66.1,29.94,South,180,1.7,-999.0,98,-99.99,,,0.49,Acu-Link.com,2013-05-18 23:01:00,
2013-05-18 19:16:00,66.0,65.4,29.95,ESE,112,3.7,-999.0,98,-99.99,,,0.49,Acu-Link.com,2013-05-18 23:16:00,
2013-05-18 19:31:00,66.2,65.6,29.95,NNE,22,1.7,-999.0,98,-99.99,,,0.49,Acu-Link.com,2013-05-18 23:31:00,
2013-05-18 19:46:00,66.2,65.6,29.96,South,180,2.7,-999.0,98,-99.99,,,0.49,Acu-Link.com,2013-05-18 23:46:00,
2013-05-18 20:01:00,66.2,65.6,29.95,East,90,0.0,-999.0,98,-99.99,,,0.49,Acu-Link.com,2013-05-19 00:01:00,
2013-05-18 20:16:00,65.8,65.2,29.96,West,270,0.0,-999.0,98,-99.99,,,0.49,Acu-Link.com,2013-05-19 00:16:00,
2013-05-18 20:31:00,65.5,64.9,29.95,NE,45,0.0,-999.0,98,-99.99,,,0.49,Acu-Link.com,2013-05-19 00:31:00,
2013-05-18 20:47:00,65.1,64.5,29.95,WSW,247,2.2,-999.0,98,-99.99,,,0.49,Acu-Link.com,2013-05-19 00:47:00,
2013-05-18 21:02:00,65.1,64.5,29.95,NE,45,1.1,-999.0,98,-99.99,,,0.49,Acu-Link.com,2013-05-19 01:02:00,
2013-05-18 21:17:00,64.9,64.3,29.95,SW,225,0.0,-999.0,98,-99.99,,,0.49,Acu-Link.com,2013-05-19 01:17:00,
2013-05-18 21:32:00,64.9,64.3,29.95,West,270,2.7,-999.0,98,-99.99,,,0.49,Acu-Link.com,2013-05-19 01:32:00,
2013-05-18 21:47:00,64.9,64.3,29.95,SSE,157,0.0,-999.0,98,-99.99,,,0.49,Acu-Link.com,2013-05-19 01:47:00,
2013-05-18 22:02:00,64.9,64.3,29.96,NE,45,2.7,-999.0,98,-99.99,,,0.49,Acu-Link.com,2013-05-19 02:02:00,
2013-05-18 22:17:00,64.9,64.3,29.96,NNE,22,0.0,-999.0,98,-99.99,,,0.49,Acu-Link.com,2013-05-19 02:17:00,
2013-05-18 22:32:00,64.6,64.0,29.97,West,270,0.0,-999.0,98,-99.99,,,0.49,Acu-Link.com,2013-05-19 02:32:00,
2013-05-18 22:47:00,64.4,63.8,29.98,NE,45,0.0,-999.0,98,-99.99,,,0.49,Acu-Link.com,2013-05-19 02:47:00,
2013-05-18 23:02:00,64.4,63.8,29.98,ESE,112,3.7,-999.0,98,-99.99,,,0.49,Acu-Link.com,2013-05-19 03:02:00,
2013-05-18 23:18:00,64.2,63.6,29.97,West,270,2.7,-999.0,98,-99.99,,,0.50,Acu-Link.com,2013-05-19 03:18:00,
2013-05-18 23:33:00,64.0,63.4,29.97,NE,45,2.2,-999.0,98,-99.99,,,0.52,Acu-Link.com,2013-05-19 03:33:00,
2013-05-18 23:48:00,63.9,63.3,29.96,WNW,292,2.2,-999.0,98,-99.99,,,0.55,Acu-Link.com,2013-05-19 03:48:00,